Terug naar catalogus

MORELOS 1

ActiefCommunicatieGEO
NORAD 15824·PAYLOAD·🇲🇽 Mexico

Gelanceerd Jun 17, 1985 vanaf Cape Canaveral Space Force Station

Loading…

TLE

VersSource: Space-Track

Epoch: Sep 13, 2026, 17:37 UTC

1 15824U 85048B   26256.73410120  .00000030  00000-0  00000-0 0  9997
2 15824  13.8890 342.3177 0003119 165.9488 180.6578  0.99464249118128

Volg MORELOS 1 in realtime met AllMySat

Download on the App Store